Terminal Aerodrome Forecast
Issued by NWS Dodge City, KS

Home | Current Version | Previous Version | Text Only | Print | Product List | Glossary On
Versions: 1 2 3 4 5 6 7 8 9 10 11 12 13 14 15 16 17 18 19 20 21 22 23 24 25 26 27 28 29 30 31 32 33 34 35 36 37 38 39 40 41 42 43 44 45 46 47 48 49 50
000
FTUS43 KDDC 230636 AAA
TAFDDC
TAF AMD
KDDC 230636Z 2307/2406 15015KT 1SM BR OVC002
      TEMPO 2307/2309 3SM -DZ BR
     FM231300 15018KT 5SM -TSRA BR OVC003CB
     FM231700 15021G28KT 4SM BR OVC007
     FM231900 17018KT P6SM OVC020=

USA.gov is the U.S. government's official web portal to all federal, state and local government web resources and services.